Weather History for Stuart, FL

Change the Weather History Date:

Wednesday, March 13, 2013

  Actual Average Record
Temperature  
Mean Temperature 62 °F -  
Max Temperature 68 °F 78 °F 91 °F (2001)
Min Temperature 53 °F 60 °F 43 °F (1959)
Degree Days  
Heating Degree Days 4    
Growing Degree Days 12 (Base 50)    
Moisture  
Dew Point 53 °F    
Average Humidity 73    
Maximum Humidity 94    
Minimum Humidity 43    
Precipitation  
Precipitation 0.00 in - - ()
Sea Level Pressure  
Sea Level Pressure 30.08 in    
Wind  
Wind Speed 8 mph (NNW)    
Max Wind Speed 17 mph    
Max Gust Speed 26 mph    
Visibility 9 miles    
Events      
Averages and records for this station are not official NWS values.
T = Trace of Precipitation, MM = Missing Value Source: NWS Daily Summary

Daily Weather History Graph

Daily Weather History Graph

Search for Another Location

Airport:

Trip Planner

Search our weather history database for the weather conditions in past years. The results will help you decide how hot, cold, wet, or windy it might be!

Date:

Astronomy

Mar. 13, 2013 Rise Set
Actual Time 7:32 AM EDT 7:28 PM EDT
Civil Twilight 7:08 AM EDT 7:51 PM EDT
Nautical Twilight 6:42 AM EDT 8:18 PM EDT
Astronomical Twilight 6:14 AM EDT 8:45 PM EDT
Moon 8:24 AM EDT (3/13) 9:26 PM EDT (3/13)
Length of Visible Light 12h 42m
Length of Day
11h 56m
Waxing Crescent, 4% of the Moon is Illuminated
Mar 13
Waxing Crescent
Mar 19
First Quarter
Mar 27
Full
Apr 3
Last Quarter
Apr 10
New

Hourly Weather History & Observations

Time (EDT) Temp. Dew Point Humidity Pressure Visibility Wind Dir Wind Speed Gust Speed Precip Events Conditions
12:15 AM 68.0 °F 62.6 °F 83% 30.02 in 10.0 mi WNW 12.7 mph 18.4 mph N/A   Overcast
12:35 AM 66.2 °F 60.8 °F 83% 30.02 in 10.0 mi WNW 8.1 mph - N/A   Overcast
12:55 AM 64.4 °F 60.8 °F 88% 30.02 in 10.0 mi NW 6.9 mph - N/A   Scattered Clouds
1:35 AM 64.4 °F 59.0 °F 83% 30.02 in 10.0 mi WNW 8.1 mph - N/A   Overcast
1:55 AM 62.6 °F 57.2 °F 82% 30.02 in 10.0 mi NW 5.8 mph - N/A   Overcast
2:15 AM 62.6 °F 57.2 °F 82% 30.02 in 10.0 mi WNW 8.1 mph - N/A   Overcast
2:35 AM 62.6 °F 57.2 °F 82% 30.02 in 10.0 mi NW 4.6 mph - N/A   Scattered Clouds
2:55 AM 60.8 °F 55.4 °F 82% 30.02 in 10.0 mi NW 8.1 mph - N/A   Clear
3:15 AM 59.0 °F 55.4 °F 88% 30.01 in 10.0 mi WNW 4.6 mph - N/A   Clear
3:35 AM 59.0 °F 55.4 °F 88% 30.02 in 10.0 mi WNW 4.6 mph - N/A   Clear
3:55 AM 59.0 °F 55.4 °F 88% 30.03 in 10.0 mi WNW 8.1 mph - N/A   Clear
4:15 AM 59.0 °F 55.4 °F 88% 30.03 in 10.0 mi NW 6.9 mph - N/A   Mostly Cloudy
4:55 AM 57.2 °F 55.4 °F 94% 30.02 in 10.0 mi NW 9.2 mph - N/A   Overcast
5:15 AM 57.2 °F 53.6 °F 88% 30.03 in 10.0 mi NW 6.9 mph - N/A   Mostly Cloudy
5:35 AM 55.4 °F 53.6 °F 94% 30.03 in 10.0 mi NNW 6.9 mph - N/A   Scattered Clouds
5:55 AM 55.4 °F 53.6 °F 94% 30.04 in 10.0 mi NW 8.1 mph - N/A   Clear
6:15 AM 55.4 °F 53.6 °F 94% 30.04 in 10.0 mi NW 6.9 mph - N/A   Clear
6:47 AM 57.2 °F 53.6 °F 88% 30.05 in 10.0 mi NW 9.2 mph - N/A   Scattered Clouds
7:47 AM 55.4 °F 51.8 °F 88% 30.07 in 10.0 mi NW 9.2 mph - N/A   Scattered Clouds
10:47 AM 66.2 °F 55.4 °F 68% 30.13 in 7.0 mi North 12.7 mph - N/A   Mostly Cloudy
11:47 AM 66.2 °F 53.6 °F 64% 30.15 in 7.0 mi North 13.8 mph 23.0 mph N/A   Mostly Cloudy
12:47 PM 68.0 °F 51.8 °F 56% 30.15 in 7.0 mi North 13.8 mph 23.0 mph N/A   Mostly Cloudy
1:47 PM 68.0 °F 50.0 °F 52% 30.14 in 7.0 mi North 17.3 mph 23.0 mph N/A   Mostly Cloudy
2:47 PM 68.0 °F 48.2 °F 49% 30.11 in 7.0 mi North 16.1 mph 23.0 mph N/A   Mostly Cloudy
3:47 PM 68.0 °F 50.0 °F 52% 30.11 in 7.0 mi North 16.1 mph 26.5 mph N/A   Mostly Cloudy
4:47 PM 68.0 °F 46.4 °F 46% 30.09 in 7.0 mi North 16.1 mph 25.3 mph N/A   Mostly Cloudy
5:47 PM 68.0 °F 44.6 °F 43% 30.09 in 7.0 mi North 15.0 mph 21.9 mph N/A   Scattered Clouds
6:47 PM 66.2 °F 46.4 °F 49% 30.09 in 7.0 mi North 6.9 mph 17.3 mph N/A   Scattered Clouds
8:15 PM 64.4 °F 46.4 °F 52% 30.10 in 10.0 mi North 5.8 mph - N/A   Clear
8:35 PM 66.2 °F 46.4 °F 49% 30.11 in 10.0 mi North 6.9 mph - N/A   Clear
8:55 PM 64.4 °F 46.4 °F 52% 30.12 in 10.0 mi North 4.6 mph - N/A   Clear
9:15 PM 64.4 °F 48.2 °F 56% 30.12 in 10.0 mi North 3.5 mph - N/A   Clear
9:35 PM 62.6 °F 48.2 °F 59% 30.13 in 10.0 mi NNW 3.5 mph - N/A   Clear
9:55 PM 62.6 °F 50.0 °F 63% 30.13 in 10.0 mi NW 4.6 mph - N/A   Clear
10:15 PM 62.6 °F 50.0 °F 63% 30.14 in 10.0 mi NNW 4.6 mph - N/A   Clear
10:35 PM 60.8 °F 50.0 °F 68% 30.14 in 10.0 mi NNW 3.5 mph - N/A   Clear
10:55 PM 60.8 °F 51.8 °F 72% 30.15 in 10.0 mi NW 3.5 mph - N/A   Clear
11:15 PM 57.2 °F 50.0 °F 77% 30.15 in 10.0 mi Calm Calm - N/A   Clear
11:35 PM 55.4 °F 50.0 °F 82% 30.15 in 10.0 mi Calm Calm - N/A   Clear
11:55 PM 53.6 °F 50.0 °F 88% 30.15 in 10.0 mi Calm Calm - N/A   Clear